• In Uzbekistan
  • List of Countries
  • For 7 days
  • Water Temperature
  • Satellite Maps
  • Weather Map
  • Weather Widgets
  • user-avatar
    Login

    Hourly Weather Canillo

    Today, 27 May, Sunday

    Time Temperature Precipitation Wind Pressure Humidity
    00:00 +8°C° 0 mm 1 mps 618 mmHg 82%
    01:00 +8°C° 0.3 mm 1 mps 618 mmHg 82%
    02:00 +7°C° 0.3 mm 1 mps 618 mmHg 81%
    03:00 +7°C° 0.3 mm 1 mps 617 mmHg 80%
    04:00 +8°C° 0.3 mm 1 mps 618 mmHg 80%
    05:00 +9°C° 0.3 mm 1 mps 618 mmHg 80%
    06:00 +10°C° 0 mm 1 mps 619 mmHg 80%
    07:00 +12°C° 0.4 mm 2 mps 619 mmHg 73%
    08:00 +14°C° 0.4 mm 2 mps 620 mmHg 67%
    09:00 +14°C° 0.4 mm 3 mps 620 mmHg 61%
    10:00 +16°C° 0.7 mm 3 mps 620 mmHg 60%
    11:00 +17°C° 0.7 mm 3 mps 621 mmHg 58%
    12:00 +17°C° 0 mm 3 mps 621 mmHg 59%
    13:00 +17°C° 1 mm 2 mps 621 mmHg 60%
    14:00 +16°C° 1 mm 2 mps 620 mmHg 62%
    15:00 +16°C° 1 mm 2 mps 620 mmHg 64%
    16:00 +15°C° 0.9 mm 2 mps 620 mmHg 69%
    17:00 +14°C° 0.9 mm 1 mps 619 mmHg 74%
    18:00 +13°C° 0.9 mm 1 mps 619 mmHg 79%
    19:00 +12°C° 0.8 mm 1 mps 618 mmHg 84%
    20:00 +10°C° 0.8 mm 1 mps 618 mmHg 89%
    21:00 +9°C° 0.8 mm 1 mps 617 mmHg 94%
    22:00 +9°C° 0.2 mm 1 mps 617 mmHg 94%
    23:00 +8°C° 0.2 mm 1 mps 617 mmHg 94%

    Tomorrow, 28 May, Monday

    Time Temperature Precipitation Wind Pressure Humidity
    00:00 +8°C° 0.2 mm 1 mps 617 mmHg 94%
    01:00 +8°C° 0.3 mm 1 mps 617 mmHg 94%
    02:00 +8°C° 0.3 mm 1 mps 617 mmHg 94%
    03:00 +8°C° 0.3 mm 1 mps 617 mmHg 95%
    04:00 +8°C° 0.3 mm 1 mps 617 mmHg 93%
    05:00 +9°C° 0.3 mm 1 mps 617 mmHg 92%
    06:00 +9°C° 0.3 mm 1 mps 618 mmHg 90%
    07:00 +10°C° 0.1 mm 1 mps 618 mmHg 85%
    08:00 +11°C° 0.1 mm 1 mps 619 mmHg 81%
    09:00 +12°C° 0.1 mm 1 mps 619 mmHg 76%
    10:00 +13°C° 0.6 mm 2 mps 619 mmHg 75%
    11:00 +13°C° 0.6 mm 2 mps 619 mmHg 75%
    12:00 +13°C° 0.6 mm 3 mps 619 mmHg 74%
    13:00 +13°C° 1.1 mm 3 mps 619 mmHg 75%
    14:00 +12°C° 1.1 mm 3 mps 619 mmHg 75%
    15:00 +12°C° 1.1 mm 3 mps 619 mmHg 75%
    16:00 +12°C° 0.8 mm 3 mps 619 mmHg 79%
    17:00 +12°C° 0.8 mm 2 mps 619 mmHg 82%
    18:00 +10°C° 0.8 mm 2 mps 618 mmHg 85%
    19:00 +9°C° 0.4 mm 2 mps 618 mmHg 88%
    20:00 +9°C° 0.4 mm 1 mps 618 mmHg 90%
    21:00 +8°C° 0.4 mm 1 mps 618 mmHg 92%
    22:00 +8°C° 0.4 mm 1 mps 618 mmHg 91%
    23:00 +8°C° 0.4 mm 1 mps 618 mmHg 91%

    Day after tomorrow, 29 May, Tuesday

    Time Temperature Precipitation Wind Pressure Humidity
    00:00 +7°C° 0.4 mm 1 mps 618 mmHg 90%
    01:00 +7°C° 0.4 mm 1 mps 618 mmHg 91%
    02:00 +7°C° 0.4 mm 1 mps 618 mmHg 92%
    03:00 +7°C° 0.4 mm 1 mps 617 mmHg 94%
    04:00 +7°C° 0.3 mm 1 mps 618 mmHg 93%
    05:00 +8°C° 0.3 mm 1 mps 618 mmHg 93%
    06:00 +8°C° 0.3 mm 1 mps 618 mmHg 93%
    07:00 +8°C° 0.3 mm 2 mps 618 mmHg 88%
    08:00 +10°C° 0.3 mm 2 mps 619 mmHg 84%
    09:00 +12°C° 0.3 mm 2 mps 619 mmHg 80%
    10:00 +12°C° 0.5 mm 2 mps 620 mmHg 78%
    11:00 +13°C° 0.5 mm 2 mps 620 mmHg 76%
    12:00 +13°C° 0.5 mm 2 mps 620 mmHg 75%
    13:00 +14°C° 1.2 mm 2 mps 619 mmHg 75%
    14:00 +14°C° 1.2 mm 2 mps 619 mmHg 75%
    15:00 +14°C° 1.2 mm 2 mps 619 mmHg 75%
    16:00 +13°C° 1 mm 2 mps 618 mmHg 78%
    17:00 +13°C° 1 mm 2 mps 618 mmHg 81%
    18:00 +12°C° 1 mm 2 mps 618 mmHg 83%
    19:00 +11°C° 0.4 mm 1 mps 617 mmHg 87%
    20:00 +9°C° 0.4 mm 1 mps 617 mmHg 91%
    21:00 +8°C° 0.4 mm 1 mps 617 mmHg 94%
    22:00 +8°C° 0.2 mm 1 mps 616 mmHg 94%
    23:00 +7°C° 0.2 mm 1 mps 616 mmHg 93%

    30 May, Wednesday

    Time Temperature Precipitation Wind Pressure Humidity
    00:00 +7°C° 0.2 mm 1 mps 616 mmHg 93%
    01:00 +6°C° 0.1 mm 1 mps 616 mmHg 93%
    02:00 +6°C° 0.1 mm 1 mps 615 mmHg 93%
    03:00 +6°C° 0.1 mm 1 mps 615 mmHg 93%
    04:00 +7°C° 0 mm 1 mps 615 mmHg 90%
    05:00 +8°C° 0 mm 1 mps 616 mmHg 88%
    06:00 +8°C° 0 mm 1 mps 616 mmHg 86%
    07:00 +10°C° 0.1 mm 1 mps 617 mmHg 80%
    08:00 +11°C° 0.1 mm 1 mps 618 mmHg 73%
    09:00 +13°C° 0.1 mm 2 mps 618 mmHg 67%
    10:00 +13°C° 0.5 mm 2 mps 618 mmHg 67%
    11:00 +14°C° 0.5 mm 2 mps 619 mmHg 66%
    12:00 +13°C° 0.5 mm 3 mps 619 mmHg 66%
    13:00 +14°C° 1 mm 2 mps 618 mmHg 67%
    14:00 +14°C° 1 mm 2 mps 618 mmHg 68%
    15:00 +14°C° 1 mm 2 mps 618 mmHg 69%
    16:00 +13°C° 1 mm 2 mps 618 mmHg 73%
    17:00 +12°C° 1 mm 2 mps 617 mmHg 76%
    18:00 +12°C° 1 mm 1 mps 617 mmHg 79%
    19:00 +10°C° 0.5 mm 1 mps 617 mmHg 84%
    20:00 +9°C° 0.5 mm 1 mps 617 mmHg 88%
    21:00 +8°C° 0.5 mm 1 mps 617 mmHg 92%
    22:00 +7°C° 0.4 mm 1 mps 617 mmHg 92%
    23:00 +7°C° 0.4 mm 1 mps 616 mmHg 92%

    31 May, Thursday

    Time Temperature Precipitation Wind Pressure Humidity
    00:00 +7°C° 0.4 mm 1 mps 616 mmHg 91%
    01:00 +7°C° 0.2 mm 1 mps 616 mmHg 91%
    02:00 +7°C° 0.2 mm 1 mps 616 mmHg 91%
    03:00 +7°C° 0.2 mm 1 mps 616 mmHg 91%
    04:00 +7°C° 0.1 mm 1 mps 617 mmHg 91%
    05:00 +8°C° 0.1 mm 1 mps 617 mmHg 90%
    06:00 +8°C° 0.1 mm 1 mps 618 mmHg 89%
    07:00 +9°C° 0.1 mm 1 mps 618 mmHg 85%
    08:00 +10°C° 0.1 mm 1 mps 619 mmHg 81%
    09:00 +11°C° 0.1 mm 1 mps 620 mmHg 76%
    10:00 +12°C° 0.2 mm 1 mps 620 mmHg 74%
    11:00 +12°C° 0.2 mm 1 mps 620 mmHg 72%
    12:00 +13°C° 0.2 mm 1 mps 621 mmHg 70%
    13:00 +13°C° 0.6 mm 1 mps 620 mmHg 72%
    14:00 +13°C° 0.6 mm 1 mps 620 mmHg 73%
    15:00 +13°C° 0.6 mm 1 mps 620 mmHg 75%
    16:00 +12°C° 0.7 mm 1 mps 620 mmHg 79%
    17:00 +12°C° 0.7 mm 1 mps 620 mmHg 83%
    18:00 +11°C° 0.7 mm 1 mps 620 mmHg 88%
    19:00 +10°C° 0.4 mm 1 mps 620 mmHg 90%
    20:00 +9°C° 0.4 mm 1 mps 620 mmHg 93%
    21:00 +9°C° 0.4 mm 1 mps 620 mmHg 95%
    22:00 +8°C° 0.1 mm 1 mps 620 mmHg 95%
    23:00 +8°C° 0.1 mm 1 mps 619 mmHg 96%

    1 June, Friday

    Time Temperature Precipitation Wind Pressure Humidity
    00:00 +8°C° 0.1 mm 1 mps 619 mmHg 96%
    01:00 +8°C° 0 mm 1 mps 619 mmHg 96%
    02:00 +8°C° 0 mm 1 mps 619 mmHg 95%
    03:00 +7°C° 0 mm 1 mps 619 mmHg 95%
    04:00 +8°C° 0 mm 1 mps 619 mmHg 94%
    05:00 +8°C° 0 mm 1 mps 619 mmHg 92%
    06:00 +9°C° 0 mm 1 mps 620 mmHg 91%
    07:00 +11°C° 0 mm 1 mps 620 mmHg 84%
    08:00 +12°C° 0 mm 1 mps 621 mmHg 78%
    09:00 +14°C° 0 mm 1 mps 622 mmHg 71%
    10:00 +15°C° 0.8 mm 1 mps 622 mmHg 69%
    11:00 +15°C° 0.8 mm 2 mps 622 mmHg 67%
    12:00 +16°C° 0.8 mm 2 mps 622 mmHg 66%
    13:00 +15°C° 1.7 mm 2 mps 622 mmHg 68%
    14:00 +15°C° 1.7 mm 1 mps 621 mmHg 71%
    15:00 +14°C° 1.7 mm 1 mps 621 mmHg 74%
    16:00 +14°C° 0.7 mm 1 mps 621 mmHg 77%
    17:00 +13°C° 0.7 mm 1 mps 620 mmHg 80%
    18:00 +13°C° 0.7 mm 1 mps 620 mmHg 83%
    19:00 +12°C° 0.3 mm 1 mps 620 mmHg 86%
    20:00 +10°C° 0.3 mm 1 mps 620 mmHg 90%
    21:00 +8°C° 0.3 mm 0 mps 619 mmHg 93%
    22:00 +9°C° 0.1 mm 1 mps 619 mmHg 92%
    23:00 +9°C° 0.1 mm 1 mps 619 mmHg 92%
    Show more